Weather History for KRTN - June, 2013

Change the Weather History Date:

Saturday, June 8, 2013

  Actual Average (KTAD) Record (KTAD)
Temperature  
Mean Temperature 65 °F 66 °F  
Max Temperature 87 °F 82 °F 97 °F (1985)
Min Temperature 46 °F 51 °F 30 °F (2007)
Degree Days  
Heating Degree Days 0 2  
Month to date heating degree days 21  
Since 1 June heating degree days 21  
Since 1 July heating degree days 5516  
Cooling Degree Days 0 3  
Month to date cooling degree days 21  
Year to date cooling degree days 49  
Since 1 June cooling degree days 21  
Growing Degree Days 15 (Base 50)    
Moisture  
Dew Point 46 °F    
Average Humidity 58    
Maximum Humidity 93    
Minimum Humidity 19    
Precipitation  
Precipitation 0.00 in 0.05 in 0.76 in (1979)
Month to date precipitation 0.41  
Year to date precipitation 4.93  
Sea Level Pressure  
Sea Level Pressure 29.78 in    
Wind  
Wind Speed 7 mph (NNE)    
Max Wind Speed 25 mph    
Max Gust Speed 32 mph    
Visibility 10 miles    
Events      
T = Trace of Precipitation, MM = Missing Value Source: NWS Daily Summary

Daily Weather History Graph

Daily Weather History Graph

Search for Another Location

Airport or City:

Trip Planner

Search our weather history database for the weather conditions in past years. The results will help you decide how hot, cold, wet, or windy it might be!

Date:

Astronomy

Jun. 08, 2013 Rise Set
Actual Time 5:38 AM MDT 8:15 PM MDT
Civil Twilight 5:08 AM MDT 8:46 PM MDT
Nautical Twilight 4:30 AM MDT 9:24 PM MDT
Astronomical Twilight 3:48 AM MDT 10:06 PM MDT
Moon 5:47 AM MDT (6/8) 8:21 PM MDT (6/8)
Length of Visible Light 15h 37m
Length of Day
14h 36m
New Moon, 0% of the Moon is Illuminated
Jun 8
New Moon
Jun 16
First Quarter
Jun 23
Full
Jun 29
Last Quarter
Jul 8
New

Hourly Weather History & Observations

Time (MDT) Temp. Windchill Dew Point Humidity Pressure Visibility Wind Dir Wind Speed Gust Speed Precip Events Conditions
12:53 AM 52.0 °F - 48.0 °F 86% 29.84 in 10.0 mi West 5.8 mph - N/A   Clear
1:53 AM 51.1 °F - 46.9 °F 86% 29.85 in 10.0 mi SW 5.8 mph - N/A   Clear
2:53 AM 50.0 °F - 46.9 °F 89% 29.83 in 10.0 mi Calm Calm - N/A   Clear
3:53 AM 48.9 °F - 46.0 °F 90% 29.83 in 10.0 mi Calm Calm - N/A   Clear
4:53 AM 46.9 °F - 45.0 °F 93% 29.86 in 10.0 mi NNE 5.8 mph - N/A   Clear
5:53 AM 46.0 °F 43.9 °F 44.1 °F 93% 29.85 in 10.0 mi NE 4.6 mph - N/A   Clear
6:53 AM 48.0 °F - 46.0 °F 93% 29.82 in 10.0 mi East 4.6 mph - N/A   Clear
7:53 AM 54.0 °F - 48.9 °F 83% 29.78 in 10.0 mi ENE 5.8 mph - N/A   Clear
8:53 AM 60.1 °F - 48.9 °F 67% 29.77 in 10.0 mi Calm Calm - N/A   Clear
9:53 AM 64.0 °F - 51.1 °F 63% 29.75 in 10.0 mi Calm Calm - N/A   Clear
10:53 AM 70.0 °F - 51.1 °F 51% 29.73 in 10.0 mi Variable 3.5 mph - N/A   Clear
11:53 AM 75.0 °F - 53.1 °F 46% 29.70 in 10.0 mi West 4.6 mph - N/A   Partly Cloudy
12:53 PM 81.0 °F - 42.1 °F 25% 29.66 in 10.0 mi Calm Calm - N/A   Clear
1:53 PM 84.9 °F - 37.9 °F 19% 29.64 in 10.0 mi Variable 6.9 mph - N/A   Partly Cloudy
2:53 PM 80.1 °F - 39.0 °F 23% 29.67 in 10.0 mi NE 23.0 mph 28.8 mph N/A   Scattered Clouds
3:53 PM 82.9 °F - 42.1 °F 24% 29.68 in 10.0 mi NE 25.3 mph 32.2 mph 0.00 in   Clear
4:53 PM 78.1 °F - 44.1 °F 30% 29.70 in 10.0 mi NE 19.6 mph 31.1 mph N/A   Partly Cloudy
5:53 PM 78.1 °F - 44.1 °F 30% 29.74 in 10.0 mi NE 19.6 mph 25.3 mph N/A   Partly Cloudy
6:53 PM 75.9 °F - 46.0 °F 35% 29.77 in 10.0 mi NE 15.0 mph - N/A   Scattered Clouds
7:53 PM 73.0 °F - 46.0 °F 38% 29.79 in 10.0 mi NE 13.8 mph - N/A   Clear
8:53 PM 68.0 °F - 45.0 °F 43% 29.83 in 10.0 mi NE 10.4 mph - N/A   Clear
9:53 PM 63.0 °F - 46.0 °F 54% 29.89 in 10.0 mi NNE 15.0 mph - N/A   Partly Cloudy
10:53 PM 60.1 °F - 46.9 °F 62% 29.90 in 10.0 mi NNE 6.9 mph - N/A   Clear
11:53 PM 59.0 °F - 46.0 °F 62% 29.89 in 10.0 mi NNW 9.2 mph - N/A   Clear